Tracking 31027 objects as of 19-Jul-2025
HD Live streaming from Space Station
objects crossing your sky now

THORAD DELTA 1 DEB

Track THORAD DELTA 1 DEB now!
10-day predictions


NORAD ID: 42595
Int'l Code: 1974-089FL
Perigee: 1,455.5 km
Apogee: 1,515.7 km
Inclination: 101.6 °
Period: 115.5 minutes
Semi major axis: 7856 km
RCS: Unknown
Launch date: November 15, 1974
Source: United States (US)
Launch site: AIR FORCE WESTERN TEST RANGE (AFWTR)

Note: This is SATELLITE DEBRIS
Your satellite tracking list
FENGYUN 1C DEB
Track 1 satellite(s)




NASA's NSSDC Master Catalog

Two Line Element Set (TLE):
1 42595U 74089FL  25197.67774267  .00000154  00000-0  13499-2 0  9991
2 42595 101.6136 174.3115 0038334 227.1842 132.6002 12.46661103530152
Source of the keplerian elements: AFSPC